Content
SEND FEEDBACK

Daily
Averages
Monthly
Summary
Mexico

PUERTO MORELOS, QUINTANA ROO


Home > North America > Mexico > Quintana Roo
Elevation: 20 feet     Latitude: 20 51N     Longitude: 086 52W

WEATHER
 
SELECT A DAY
Number of Records: 163,700;   Date Range: 1/1/95 - 7/27/14
 
SHARE

PRINT THIS DATA

[ ← Previous Day ]
WEATHER ALMANAC - JULY 16, 2013
[ Next Day → ]
[ °C ]   °F
Weather ElementAverageHighLow
Temperature82.2 °F86 °F (11:47 am)78.8 °F (9:48 pm)
Dewpoint75.6 °F77 °F (1:40 am)73.4 °F (2:43 pm)
Humidity80.6 %89 % (1:40 am)66 % (2:43 pm)
Barometer29.97 in30.02 in (10:47 pm)29.94 in (4:43 am)
Wind Speed6.4 mph10.4 mph (8:43 am)
Weather ElementAverage
Visibility6.7 mi
Wind DirectionENE (66.5 °)

Weather ElementTotal
Precipitation---
Cooling Degree Days17.4 (Base 65)
Growing Degree Days32.4 (Base 50)
Averaged from 23 records on July 16, 2013
WEATHER CONDITIONS BREAKOUT
WIND DIRECTION BREAKOUT
WEATHER BY HOUR - JULY 16, 2013
[ °C ]   °F
Local TimeTemperatureDewpointHumidityBarometerVisibilityWind DirectionWind SpeedGust SpeedPrecipitationEventsConditions
1:40 AM80.6 °F77.0 °F89 %29.96 in6.0 miEast (90°)4.6 mphMostly Cloudy
2:40 AM80.6 °F75.2 °F84 %29.96 in7.0 miEast (90°)3.5 mphMostly Cloudy
3:40 AM80.6 °F75.2 °F84 %29.95 in6.0 miENE (70°)4.6 mphMostly Cloudy
4:43 AM80.6 °F75.2 °F84 %29.94 in6.0 miEast (80°)5.8 mphMostly Cloudy
5:40 AM80.6 °F75.2 °F84 %29.94 in6.0 miEast (80°)5.8 mphMostly Cloudy
6:48 AM80.6 °F75.2 °F84 %29.94 in6.0 miEast (100°)4.6 mphMostly Cloudy
7:44 AM82.4 °F75.2 °F79 %29.97 in6.0 miNE (50°)4.6 mphOvercast
8:43 AM82.4 °F75.2 °F79 %29.98 in6.0 miEast (80°)10.4 mphOvercast
9:43 AM84.2 °F77.0 °F79 %29.98 in7.0 miENE (70°)6.9 mphMostly Cloudy
10:43 AM84.2 °F75.2 °F74 %30.00 in7.0 miNE (40°)9.2 mphMostly Cloudy
11:47 AM86.0 °F77.0 °F74 %29.99 in7.0 miNE (50°)10.4 mphMostly Cloudy
12:49 PM86.0 °F77.0 °F74 %29.98 in7.0 miNE (40°)9.2 mphMostly Cloudy
1:45 PM84.2 °F77.0 °F79 %29.97 in7.0 miENE (60°)5.8 mphOvercast
2:43 PM86.0 °F73.4 °F66 %29.96 in7.0 miEast (80°)10.4 mphMostly Cloudy
3:44 PM84.2 °F75.2 °F74 %29.97 in7.0 miENE (60°)10.4 mphMostly Cloudy
4:45 PM84.2 °F75.2 °F74 %29.96 in7.0 miEast (80°)5.8 mphMostly Cloudy
5:41 PM84.2 °F77.0 °F79 %29.96 in7.0 miENE (60°)6.9 mphMostly Cloudy
6:57 PM82.4 °F75.2 °F79 %29.97 in7.0 miENE (60°)4.6 mphMostly Cloudy
7:45 PM80.6 °F75.2 °F84 %29.97 in7.0 miNE (50°)3.5 mphMostly Cloudy
8:42 PM80.6 °F75.2 °F84 %30.00 in7.0 miENE (60°)2.3 mphMostly Cloudy
9:48 PM78.8 °F75.2 °F89 %29.97 in7.0 miENE (60°)5.8 mphMostly Cloudy
10:47 PM78.8 °F75.2 °F89 %30.02 in7.0 miENE (60°)5.8 mphMostly Cloudy
11:46 PM78.8 °F75.2 °F89 %30.02 in7.0 miENE (60°)5.8 mphMostly Cloudy
Hourly data recorded from MMUN, located miles away from Puerto Morelos, Quintana Roo







STORIES FROM OUR PARTNERS